Wetbulb
59.73 59.66 59.31 58.50 58.55 58.74 59.34 59.15 59.08 59.63 59.50 59.87 60.25 60.59 61.17 61.69 61.60 60.08 55.24 61.59 71.61 78.67 77.49 73.71 70.58 67.94 68.26 65.40 67.28 65.90 55.67 53.65 56.30 56.72 59.85 64.61 62.07 66.22 67.44 63.86 64.03 66.26 64.23 64.60 66.77
58.97 58.87 58.61 58.26 58.22 58.62 59.33 59.50 59.18 59.20 59.08 59.03 59.47 60.59 61.09 61.50 59.23 57.29 66.03 74.52 78.10 77.57 71.70 69.87 65.59 67.60 65.11 65.75 65.79 61.21 54.88 56.60 62.20 60.62 62.10 63.70 64.24 64.27 63.58 63.13 63.55 63.43 66.11 67.02 67.58
58.67 58.45 58.28 58.13 58.17 58.74 58.92 58.62 58.72 58.37 58.35 58.69 59.28 60.71 61.30 61.19 57.36 56.01 72.10 76.54 77.65 76.46 72.41 71.23 67.96 66.65 61.99 63.45 62.97 60.78 56.22 61.49 63.28 64.90 65.11 64.44 64.04 65.83 62.73 61.11 62.89 61.72 64.54 66.06 67.30
58.70 58.31 58.09 58.00 57.98 57.95 58.25 58.30 58.04 58.08 58.16 58.50 59.69 60.30 61.53 58.63 52.23 62.49 76.02 77.27 77.35 75.56 72.36 68.82 65.80 61.39 60.15 59.22 63.86 59.59 62.70 62.49 63.28 66.49 64.53 63.16 65.02 63.54 63.91 63.73 65.61 65.93 66.41 66.60 66.75
58.41 58.29 57.86 57.72 57.70 57.90 57.79 57.96 57.60 57.57 57.81 58.73 59.79 60.44 57.06 53.18 51.87 74.04 77.33 77.86 75.46 73.90 67.99 66.47 63.58 62.58 59.18 60.43 64.02 61.84 63.64 65.16 65.65 65.11 62.91 64.49 64.31 63.70 64.41 65.95 66.89 66.91 67.06 66.45 66.98
58.23 58.14 57.73 57.67 57.67 57.90 57.84 57.61 57.14 57.30 57.99 59.22 59.86 60.53 53.65 44.17 62.26 76.28 74.78 73.91 73.50 71.91 69.69 68.30 67.31 66.04 63.33 62.08 61.99 63.77 62.91 62.45 65.32 65.31 65.09 62.92 63.80 64.74 64.94 66.41 65.50 65.60 65.68 65.78 67.22
57.89 58.02 57.63 57.67 57.78 57.82 57.75 57.14 57.07 57.28 58.74 59.65 60.16 60.40 52.58 46.99 66.78 72.76 72.99 70.48 70.68 71.76 68.58 70.40 69.91 66.40 63.08 59.45 63.89 61.99 57.61 61.30 61.99 62.93 61.19 64.51 61.16 61.67 65.27 65.91 64.14 64.06 64.98 65.04 66.28
58.25 58.14 58.23 57.52 57.54 57.16 57.10 56.68 56.93 58.39 59.44 60.53 61.43 56.06 46.70 55.31 65.55 66.11 64.37 62.95 67.90 70.88 68.69 69.04 70.07 66.79 60.96 62.94 62.65 58.38 58.59 53.99 59.54 61.66 61.17 60.68 53.62 62.99 65.64 64.67 63.43 63.83 64.44 64.99 65.01
57.95 57.23 57.19 57.28 56.77 56.48 56.11 56.64 57.79 59.48 60.25 62.36 53.93 52.04 46.40 64.46 57.98 60.83 62.98 60.86 63.97 66.65 67.15 69.76 65.41 59.88 58.39 53.69 52.06 57.30 51.59 54.12 57.33 62.45 60.38 59.26 55.93 62.63 64.95 64.38 63.25 63.68 63.93 64.72 65.25
57.57 56.90 56.65 56.71 56.03 55.75 55.96 56.56 56.93 58.13 60.00 62.24 61.70 50.71 51.91 56.25 57.04 60.66 61.63 63.83 62.26 62.48 62.03 61.38 59.15 53.79 52.90 49.64 45.33 50.35 54.11 55.34 55.36 60.40 60.05 57.57 57.15 60.10 63.13 63.59 62.90 63.08 63.26 64.17 65.09
57.59 56.87 56.62 55.85 55.52 55.33 52.07 53.42 52.74 50.62 54.95 46.47 48.98 50.95 54.67 56.21 60.90 61.39 62.60 61.81 61.58 59.46 54.59 55.65 51.48 49.23 52.59 53.42 53.84 53.92 55.15 54.55 56.32 59.07 59.15 57.07 57.29 59.24 60.90 61.95 61.32 60.59 60.18 61.20 64.28
56.55 56.24 55.91 55.68 55.00 54.60 51.17 50.83 54.65 55.97 49.81 55.32 55.04 55.74 57.01 56.13 53.84 56.31 63.73 59.24 58.02 54.63 54.13 51.69 48.67 53.51 53.84 54.30 54.53 53.45 53.32 53.86 57.95 60.93 57.52 56.70 57.89 59.79 61.21 61.07 62.25 62.33 61.25 60.59 60.13
56.49 55.94 55.41 54.77 54.50 51.30 49.44 51.75 54.82 54.62 46.81 51.74 55.17 54.12 54.40 54.98 53.46 54.14 61.47 59.68 55.62 53.81 53.85 49.91 52.82 55.22 55.03 54.87 53.32 51.57 51.32 54.35 54.10 58.25 57.06 56.78 55.84 59.19 62.87 63.69 63.85 64.35 63.00 62.83 61.63
56.62 55.70 54.79 53.93 51.56 51.58 52.81 54.65 54.74 53.67 42.74 46.71 50.52 54.21 53.66 53.36 51.09 57.82 61.03 59.28 54.45 52.73 52.52 50.36 53.58 52.92 50.94 52.79 52.90 47.99 54.59 58.32 56.40 53.81 47.39 55.25 44.92 52.89 59.59 60.02 61.23 61.39 61.70 61.26 61.37
56.88 56.06 54.01 53.30 50.34 51.34 56.77 54.43 52.72 53.38 38.48 51.34 50.35 54.67 51.28 50.60 49.54 53.31 60.01 56.56 53.48 51.83 49.47 49.19 49.50 49.18 48.56 51.64 54.65 52.30 60.05 58.25 56.63 50.52 49.76 52.09 46.98 48.90 58.10 57.71 58.91 61.10 62.59 63.53 64.82
56.26 55.21 54.02 51.69 49.25 52.97 54.71 53.84 53.86 45.10 40.78 48.41 50.77 49.01 48.18 47.33 48.74 52.59 56.18 56.13 54.78 50.74 48.06 49.66 51.22 50.19 50.01 52.81 56.25 56.77 54.90 48.29 49.44 47.53 42.37 46.90 44.95 47.25 53.64 56.57 60.43 63.02 63.76 64.95 65.07
54.75 53.68 52.55 55.06 54.52 54.75 54.69 54.00 44.91 41.21 50.77 46.09 45.76 45.17 46.13 45.77 47.05 50.13 51.54 50.38 45.88 42.33 40.70 46.72 47.95 49.93 51.70 48.26 49.50 47.83 42.98 37.56 38.26 41.77 39.93 44.99 45.53 47.86 55.62 59.38 61.00 61.93 63.42 64.25 65.11
52.62 52.08 51.71 54.54 51.96 55.18 54.92 50.05 40.55 48.75 47.81 47.86 45.90 43.83 44.26 45.13 45.98 47.02 47.49 46.65 46.22 44.53 41.43 40.67 42.64 46.29 49.92 49.49 47.85 46.64 44.43 39.67 36.54 37.89 42.97 47.46 44.30 50.00 56.74 59.39 63.29 62.84 63.25 64.69 65.03
51.14 49.53 50.65 53.79 54.20 54.18 52.73 44.40 45.87 49.02 51.84 46.22 45.21 42.96 42.37 44.61 44.46 45.54 44.96 44.71 45.94 46.49 42.49 41.45 43.55 50.27 49.29 49.08 49.43 44.34 41.83 46.15 43.63 42.45 43.13 45.01 49.68 53.74 57.38 59.18 61.86 62.00 61.94 63.15 64.75
52.34 53.57 55.12 57.31 56.08 54.74 49.83 45.43 48.70 53.02 53.51 52.17 46.61 45.54 40.96 42.76 43.10 43.49 43.06 47.31 47.52 48.23 45.16 44.99 42.28 45.84 49.94 48.09 47.85 47.80 46.76 40.68 42.14 39.40 36.78 42.67 45.52 47.24 54.04 56.91 59.55 61.41 62.55 63.91 64.31
55.28 56.36 58.59 57.41 56.23 52.57 47.81 47.92 52.34 53.86 55.00 51.20 49.26 47.88 48.14 46.82 43.04 42.78 44.46 50.41 49.52 50.53 48.58 44.98 43.35 45.21 45.65 46.41 44.05 43.01 41.45 39.62 42.11 41.70 37.74 38.73 45.51 55.31 57.02 58.35 59.33 61.69 62.57 63.61 61.73
54.05 52.37 58.87 56.32 51.85 47.42 47.45 51.16 51.65 51.52 55.14 53.98 52.88 50.80 48.91 49.78 47.68 47.17 48.45 49.56 52.60 51.46 48.89 47.73 42.52 41.02 43.49 46.22 49.02 43.07 44.82 39.77 37.56 39.18 41.29 43.36 47.79 59.22 60.32 60.45 60.62 61.71 63.33 63.97 62.46
54.13 53.77 58.50 57.04 48.07 49.17 49.49 51.75 53.00 52.91 51.90 52.98 51.73 51.65 51.93 50.34 47.93 50.75 51.97 54.00 54.21 50.85 46.55 46.75 41.74 39.89 44.37 46.35 48.17 46.96 46.89 42.04 44.29 45.35 43.27 44.84 49.04 59.12 57.66 58.75 61.55 62.17 63.32 62.45 65.23
55.20 52.29 54.31 53.50 50.96 50.02 47.06 49.75 50.58 55.19 52.71 53.02 52.67 53.10 51.53 50.21 50.53 49.76 51.46 55.67 55.42 55.07 61.06 52.95 41.79 42.39 41.37 44.86 45.63 45.18 48.92 46.65 46.13 44.96 45.95 46.54 49.78 54.74 55.81 56.61 59.19 61.72 62.88 66.01 66.21
52.72 50.84 52.59 50.07 52.04 51.26 48.44 49.94 51.36 50.52 52.78 50.76 50.61 52.78 50.10 46.62 47.79 48.39 49.91 51.49 54.53 56.49 51.57 48.51 43.61 42.90 45.18 48.55 48.06 48.22 49.61 49.65 45.83 47.86 45.99 48.97 49.56 51.85 54.45 57.08 62.39 63.60 66.18 64.55 65.20
51.39 50.52 52.58 51.12 51.48 49.27 46.74 48.54 50.60 51.65 50.58 48.37 48.03 51.60 50.31 45.62 46.01 45.00 46.95 46.32 47.78 51.10 47.37 46.46 43.38 43.13 44.46 48.36 49.55 49.45 51.74 54.13 53.52 51.80 50.71 50.16 49.58 53.86 56.39 62.30 64.00 63.82 63.37 61.94 63.48
54.54 54.51 53.33 50.41 51.62 48.53 48.01 49.69 52.75 51.45 51.90 52.63 50.28 49.26 48.86 50.29 51.15 50.87 49.83 49.43 48.72 48.53 47.18 45.18 42.75 41.76 40.13 45.04 46.54 45.35 49.53 52.04 54.01 53.47 52.80 49.80 53.01 55.84 57.57 63.71 62.73 62.51 61.82 60.54 60.96
MSLP
1016.09 1015.81 1015.48 1015.27 1015.05 1014.78 1014.47 1014.30 1014.07 1013.75 1013.44 1013.08 1012.76 1012.46 1012.00 1011.67 1011.01 1010.70 1009.40 1007.22 1007.80 1008.24 1008.66 1008.92 1009.00 1009.36 1009.85 1010.83 1010.96 1011.11 1011.04 1011.07 1010.33 1009.91 1009.58 1009.66 1009.98 1010.55 1010.78 1011.48 1011.73 1012.27 1013.19 1013.84 1014.87
1015.89 1015.66 1015.36 1015.10 1014.84 1014.63 1014.29 1014.08 1013.90 1013.64 1013.34 1012.91 1012.61 1012.28 1011.95 1011.70 1011.15 1009.61 1006.43 1006.86 1007.45 1007.92 1008.75 1008.72 1008.94 1009.47 1010.04 1010.67 1010.93 1010.94 1011.31 1010.67 1009.64 1009.27 1009.24 1009.80 1009.99 1010.14 1010.89 1011.57 1012.04 1012.52 1013.45 1014.19 1015.06
1015.60 1015.38 1015.10 1014.89 1014.61 1014.42 1014.19 1013.94 1013.72 1013.52 1013.23 1012.81 1012.39 1012.08 1011.85 1011.64 1010.70 1007.27 1005.62 1006.99 1007.59 1007.71 1008.38 1008.58 1009.08 1009.35 1009.78 1010.45 1010.75 1011.08 1010.99 1010.23 1009.36 1009.15 1009.26 1009.91 1010.11 1010.09 1010.89 1011.64 1011.79 1012.25 1013.40 1014.55 1015.28
1015.37 1015.07 1014.83 1014.63 1014.36 1014.14 1014.05 1013.79 1013.63 1013.36 1013.06 1012.66 1012.26 1011.84 1011.60 1011.48 1009.24 1006.15 1005.63 1006.87 1007.65 1007.85 1008.24 1008.80 1009.31 1009.66 1010.40 1010.74 1010.86 1010.73 1010.29 1010.20 1009.49 1008.82 1009.04 1009.58 1010.08 1010.52 1010.70 1010.84 1011.39 1012.45 1013.42 1014.30 1015.14
1015.12 1014.75 1014.48 1014.30 1014.06 1013.77 1013.66 1013.52 1013.39 1013.22 1012.88 1012.48 1012.09 1011.79 1011.36 1010.33 1007.58 1005.97 1006.05 1007.20 1008.06 1008.29 1008.07 1008.38 1009.03 1009.49 1010.07 1010.28 1010.54 1010.94 1010.25 1010.11 1010.03 1009.34 1008.63 1009.15 1009.91 1010.26 1010.78 1011.05 1011.91 1012.74 1013.64 1014.28 1014.99
1014.82 1014.41 1014.03 1013.85 1013.67 1013.38 1013.25 1013.20 1013.09 1012.90 1012.66 1012.32 1012.03 1011.85 1011.20 1008.94 1006.06 1005.99 1006.41 1007.66 1007.82 1008.10 1008.16 1008.20 1008.26 1008.73 1009.34 1009.85 1010.23 1010.71 1010.72 1010.94 1009.78 1009.60 1009.26 1009.42 1010.27 1010.35 1011.17 1011.61 1012.25 1012.91 1013.67 1014.32 1014.78
1014.40 1014.04 1013.63 1013.33 1013.22 1013.02 1012.81 1012.84 1012.77 1012.56 1012.33 1012.19 1012.01 1011.67 1010.50 1007.02 1005.92 1006.27 1006.64 1007.11 1007.62 1007.49 1007.97 1007.57 1007.99 1008.55 1009.02 1009.47 1010.11 1009.88 1011.18 1011.85 1011.64 1010.37 1009.61 1009.79 1010.72 1010.80 1011.20 1011.99 1012.46 1012.97 1013.38 1014.05 1014.46
1014.01 1013.66 1013.21 1012.90 1012.72 1012.63 1012.38 1012.36 1012.31 1012.15 1011.95 1011.95 1011.89 1011.55 1009.41 1006.44 1006.19 1006.81 1007.10 1007.42 1007.66 1007.81 1007.71 1007.99 1008.54 1009.14 1009.57 1010.05 1010.37 1011.39 1012.22 1013.03 1012.51 1011.62 1010.47 1010.31 1011.15 1011.27 1011.54 1012.10 1012.67 1013.22 1013.50 1013.80 1014.16
1013.60 1013.29 1012.92 1012.58 1012.38 1012.17 1011.93 1011.83 1011.74 1011.59 1011.64 1011.66 1011.79 1011.17 1008.48 1006.76 1006.61 1006.36 1006.67 1006.71 1007.46 1007.91 1008.05 1008.49 1008.85 1009.17 1009.39 1010.06 1010.98 1011.87 1013.10 1013.56 1012.59 1011.51 1011.06 1010.74 1011.43 1011.44 1011.83 1012.20 1012.71 1013.08 1013.49 1013.66 1013.80
1013.19 1012.92 1012.64 1012.34 1012.11 1011.81 1011.42 1011.18 1011.27 1011.32 1011.57 1011.57 1010.97 1010.54 1008.05 1006.42 1005.74 1005.85 1006.33 1006.62 1007.10 1007.56 1008.12 1008.24 1008.73 1009.20 1009.56 1009.97 1010.38 1010.76 1012.43 1012.90 1011.63 1011.13 1010.93 1010.68 1011.19 1011.30 1011.67 1012.14 1012.43 1012.77 1013.20 1013.29 1013.38
1012.92 1012.66 1012.42 1012.14 1011.93 1011.72 1011.14 1010.78 1011.26 1011.13 1010.50 1009.08 1008.48 1008.00 1006.34 1005.40 1005.05 1005.60 1005.95 1006.58 1006.76 1007.18 1007.64 1007.59 1008.44 1008.93 1008.74 1008.99 1008.68 1008.96 1010.63 1011.15 1010.25 1010.58 1011.21 1011.01 1010.61 1010.39 1010.95 1011.64 1012.10 1012.52 1012.67 1012.84 1012.91
1012.74 1012.37 1012.13 1011.93 1011.79 1011.75 1011.78 1010.50 1008.60 1008.18 1008.26 1007.26 1007.25 1006.94 1006.10 1005.49 1005.39 1005.27 1005.70 1006.62 1006.65 1007.33 1007.35 1007.98 1007.83 1007.31 1007.46 1007.62 1008.10 1008.49 1009.14 1009.98 1009.96 1010.34 1011.15 1011.46 1011.85 1011.55 1011.06 1010.68 1011.04 1011.44 1011.93 1012.23 1012.53
1012.47 1012.11 1011.85 1011.74 1011.66 1011.69 1010.84 1009.18 1007.87 1007.60 1007.77 1006.42 1006.01 1005.65 1005.00 1005.19 1005.00 1004.74 1005.34 1005.98 1006.19 1007.00 1007.19 1007.63 1006.64 1006.57 1007.10 1007.21 1007.73 1007.91 1008.19 1008.73 1009.37 1010.38 1011.10 1012.01 1012.63 1012.41 1011.90 1011.27 1010.67 1010.84 1011.05 1011.28 1011.84
1012.18 1011.81 1011.64 1011.64 1012.03 1010.73 1009.63 1007.96 1007.33 1007.23 1007.43 1006.02 1005.18 1003.98 1004.23 1004.39 1004.46 1003.99 1004.49 1005.47 1006.10 1006.44 1007.06 1007.15 1006.13 1006.02 1005.93 1006.43 1006.78 1006.80 1006.69 1008.20 1009.34 1010.29 1011.41 1012.17 1013.22 1012.97 1012.51 1011.74 1011.85 1011.88 1011.77 1011.63 1011.72
1011.83 1011.54 1011.52 1011.51 1011.27 1010.19 1008.05 1007.25 1006.98 1007.05 1006.85 1005.16 1004.30 1003.06 1003.48 1004.11 1004.16 1004.05 1004.16 1004.91 1005.77 1006.16 1006.81 1006.39 1005.63 1005.43 1005.26 1005.03 1005.32 1005.84 1006.28 1008.04 1009.41 1010.90 1012.23 1012.92 1013.40 1013.75 1013.04 1012.20 1011.65 1011.77 1011.91 1011.96 1011.91
1011.53 1011.35 1011.32 1011.52 1011.28 1008.35 1007.43 1007.03 1006.94 1007.58 1005.95 1004.54 1003.66 1003.52 1003.91 1004.12 1004.21 1004.16 1004.43 1004.70 1005.43 1006.14 1006.27 1005.72 1005.07 1004.99 1004.05 1003.69 1004.47 1005.74 1007.58 1009.34 1010.69 1011.92 1013.42 1013.56 1013.94 1014.07 1013.38 1012.34 1011.29 1010.64 1011.02 1011.22 1011.33
1011.05 1010.91 1011.14 1010.08 1008.94 1007.66 1007.23 1007.47 1007.92 1006.83 1005.16 1004.53 1004.19 1004.17 1004.32 1004.60 1004.54 1004.53 1004.91 1005.50 1006.13 1006.66 1006.90 1005.96 1004.62 1003.69 1003.25 1003.74 1004.64 1005.99 1007.90 1010.35 1012.07 1013.13 1013.93 1013.96 1014.17 1013.42 1012.71 1011.72 1011.27 1010.49 1009.90 1010.01 1010.66
1010.03 1010.04 1010.06 1009.06 1008.33 1007.74 1007.84 1008.34 1007.75 1005.88 1005.02 1004.29 1004.23 1004.63 1005.00 1005.03 1004.93 1004.97 1005.40 1006.29 1006.42 1006.72 1007.05 1006.54 1005.16 1003.79 1003.08 1003.27 1004.19 1005.54 1006.74 1009.31 1011.50 1013.60 1014.01 1014.10 1014.27 1013.03 1011.72 1011.51 1011.04 1010.53 1010.51 1009.89 1010.44
1009.81 1009.87 1009.68 1007.84 1007.80 1008.54 1008.71 1008.67 1007.23 1005.55 1004.73 1004.35 1004.51 1005.14 1005.21 1005.06 1005.21 1005.38 1005.82 1006.32 1006.09 1006.21 1006.62 1006.39 1005.45 1003.82 1003.00 1003.08 1003.40 1005.41 1006.97 1008.50 1011.29 1013.65 1014.14 1014.90 1013.96 1012.40 1011.13 1010.89 1011.04 1011.28 1010.76 1009.58 1011.01
1009.73 1009.28 1008.50 1007.29 1007.49 1008.13 1008.83 1008.08 1006.64 1005.11 1004.48 1004.32 1005.25 1005.47 1005.72 1005.31 1005.52 1005.67 1005.88 1005.10 1005.40 1005.20 1005.21 1006.01 1005.90 1004.46 1003.55 1003.05 1003.81 1004.68 1006.56 1008.52 1010.60 1013.21 1015.03 1015.15 1014.29 1012.78 1010.83 1010.61 1011.11 1011.42 1011.08 1010.69 1010.82
1009.44 1009.00 1007.73 1007.35 1007.36 1008.51 1008.93 1007.89 1006.14 1004.60 1004.69 1004.77 1005.58 1005.77 1005.79 1005.74 1005.78 1005.84 1005.61 1004.76 1004.48 1004.73 1005.04 1005.79 1006.54 1005.44 1004.67 1004.43 1004.68 1005.55 1006.72 1008.73 1010.73 1012.49 1014.03 1014.94 1013.53 1011.14 1010.54 1010.98 1011.38 1012.21 1011.90 1011.61 1011.34
1009.75 1009.56 1007.98 1008.14 1008.39 1009.09 1008.79 1007.33 1005.78 1005.27 1004.66 1005.04 1005.36 1005.65 1005.71 1005.96 1006.13 1005.76 1005.29 1004.69 1004.09 1004.39 1005.46 1005.98 1006.62 1006.79 1005.90 1005.08 1005.16 1005.16 1006.00 1007.77 1010.30 1012.73 1013.38 1013.41 1012.46 1010.49 1010.68 1010.83 1010.96 1010.52 1010.99 1011.19 1010.68
1010.90 1010.03 1008.26 1008.05 1009.02 1009.33 1008.26 1007.10 1006.41 1005.60 1005.48 1005.65 1005.94 1006.13 1006.10 1006.54 1006.73 1006.33 1005.65 1005.01 1004.66 1004.87 1005.56 1005.85 1007.27 1007.73 1006.64 1006.26 1005.83 1005.94 1006.29 1007.52 1009.10 1010.71 1012.64 1012.99 1012.48 1010.76 1010.96 1011.02 1010.97 1011.23 1011.06 1010.86 1010.27
1011.36 1011.07 1010.04 1009.39 1009.90 1009.98 1009.27 1008.08 1006.95 1006.14 1006.42 1006.43 1006.77 1006.33 1006.77 1007.21 1007.18 1007.31 1006.62 1005.87 1005.49 1005.60 1005.73 1005.85 1008.16 1008.57 1008.43 1007.71 1006.93 1006.62 1006.45 1006.95 1008.27 1010.18 1011.93 1012.03 1011.69 1011.31 1011.14 1011.44 1011.09 1010.98 1011.08 1010.90 1010.93
1012.24 1013.34 1012.78 1011.77 1010.97 1010.68 1009.53 1008.61 1007.65 1007.02 1006.64 1006.83 1007.45 1007.49 1007.69 1008.11 1007.91 1007.76 1007.47 1006.82 1006.25 1006.26 1006.38 1007.18 1008.87 1008.76 1008.35 1007.65 1006.83 1006.66 1006.63 1006.78 1007.50 1009.13 1009.86 1010.72 1011.17 1010.93 1011.15 1011.26 1011.11 1011.41 1011.48 1011.47 1011.90
1014.14 1014.41 1013.40 1012.72 1012.00 1010.96 1010.18 1009.73 1008.87 1007.93 1007.41 1007.48 1007.94 1008.05 1007.81 1008.09 1008.24 1008.24 1008.13 1007.82 1007.55 1007.17 1007.65 1008.40 1009.12 1009.08 1008.66 1007.75 1007.35 1007.02 1006.86 1006.97 1007.39 1008.73 1009.22 1010.05 1010.63 1010.67 1010.90 1011.36 1011.78 1011.76 1011.67 1011.67 1012.14
1015.13 1014.76 1014.46 1013.70 1012.81 1012.02 1011.36 1010.28 1009.54 1008.54 1008.05 1007.66 1007.50 1007.70 1007.93 1007.85 1007.72 1007.60 1007.68 1007.69 1007.83 1008.15 1008.64 1008.98 1009.66 1010.19 1009.63 1008.53 1007.70 1007.61 1007.34 1007.29 1007.61 1008.32 1008.51 1009.84 1009.64 1010.19 1011.11 1011.57 1011.82 1012.14 1012.16 1012.09 1012.25
Wind_Speed
14 14 14 13 13 13 13 13 13 13 13 14 13 13 14 13 13 1 6 7 7 15 11 8 5 8 6 3 2 1 5 3 2 4 3 10 9 7 7 10 3 3 6 9 13
15 14 14 14 14 13 13 13 13 13 13 14 14 13 13 12 3 6 10 13 23 16 10 10 4 2 4 4 2 4 4 2 1 2 8 14 7 9 8 10 4 9 11 14 15
16 15 14 14 14 14 13 13 13 13 13 14 14 13 11 8 1 7 11 18 23 15 10 7 3 3 6 3 2 4 2 3 3 2 11 7 9 5 16 2 5 20 17 17 15
16 16 15 14 15 14 13 13 13 12 13 14 14 14 12 2 4 2 10 21 23 10 10 9 3 3 3 3 2 3 5 3 6 2 9 9 7 9 4 3 14 15 17 19 16
16 16 16 15 15 15 14 13 13 12 12 13 12 11 3 1 8 2 11 16 15 5 10 8 3 3 0 3 4 3 6 6 13 11 7 7 7 7 4 12 14 16 15 16 15
17 16 16 15 15 14 14 13 12 12 12 11 9 6 2 2 2 10 11 14 11 7 8 7 7 6 1 4 3 3 9 20 12 9 6 5 8 7 5 14 16 17 16 14 16
18 16 16 16 15 14 14 13 12 12 12 9 6 3 1 10 2 7 10 7 5 11 8 13 3 3 1 2 5 14 11 17 13 14 4 11 3 5 15 15 16 16 16 12 15
15 15 15 16 15 14 14 14 13 12 10 6 3 2 7 4 6 8 3 2 3 7 4 6 1 4 2 5 4 7 9 9 14 13 6 5 3 6 13 17 14 12 13 13 12
15 16 16 14 15 14 14 15 15 11 5 3 3 1 6 2 4 6 6 7 7 5 6 5 6 6 3 5 3 5 7 4 9 5 4 3 4 8 11 13 13 12 11 12 12
16 16 15 13 13 14 14 17 2 4 2 5 5 2 3 6 4 7 4 3 5 6 5 6 5 5 4 4 5 6 8 10 14 5 3 7 5 10 12 12 13 11 9 11 12
15 13 11 11 10 10 9 3 3 2 2 9 6 2 2 4 5 6 6 5 2 2 4 1 4 5 11 11 8 7 15 14 9 9 1 3 13 19 12 13 8 8 8 9 12
17 14 11 9 8 6 3 3 5 4 6 10 5 6 5 1 3 5 8 6 5 5 2 5 6 11 5 6 7 5 7 6 4 7 3 1 4 3 8 8 8 7 8 8 6
17 13 10 7 6 3 3 6 1 5 3 7 6 5 6 9 8 9 13 7 4 5 5 6 10 5 3 4 3 4 7 9 6 8 3 5 1 3 2 4 9 7 7 8 7
17 12 8 4 3 0 5 4 6 5 6 6 3 6 5 6 3 4 8 7 2 5 4 5 7 5 4 6 8 6 12 11 11 10 4 4 2 2 5 8 4 5 1 1 4
13 9 6 3 3 2 5 8 1 5 4 1 3 1 3 8 3 4 5 5 7 5 6 9 6 7 5 5 4 8 12 11 5 7 6 7 5 5 5 6 7 3 4 5 4
14 7 2 2 1 9 8 6 5 7 2 1 4 4 4 3 0 1 4 4 3 4 2 10 4 4 9 5 8 9 9 9 7 4 3 4 4 5 3 6 7 7 6 8 6
12 7 5 2 4 4 5 6 6 4 1 3 4 3 4 4 2 4 6 5 4 3 3 7 6 5 4 3 4 6 6 4 3 1 4 2 4 7 6 10 9 12 10 11 8
17 7 8 6 3 5 4 7 1 1 5 4 4 3 4 3 4 1 5 1 2 4 2 1 9 3 2 8 9 0 9 7 4 3 3 1 2 7 13 7 9 8 8 12 9
2 1 1 5 9 2 6 4 5 2 4 5 5 4 3 1 2 3 6 6 7 10 7 3 6 7 3 1 8 3 3 4 10 4 5 3 5 9 11 12 13 7 8 17 3
1 1 3 3 7 6 5 4 4 5 3 6 4 3 4 4 5 5 4 5 5 12 3 2 4 2 6 2 5 3 8 3 4 6 3 4 5 6 7 1 6 12 8 2 2
2 4 4 4 2 6 1 5 6 3 2 4 4 2 5 2 5 7 7 4 4 3 6 5 4 8 3 2 3 4 2 8 7 4 7 4 7 9 12 6 2 9 4 5 6
2 5 2 2 5 1 1 5 6 6 5 6 4 1 1 2 3 3 4 4 1 5 4 3 6 2 4 1 2 3 4 6 7 3 3 4 7 4 8 9 8 12 4 3 5
3 2 3 5 4 6 7 5 5 10 8 5 8 6 6 6 5 6 6 7 9 3 3 4 4 4 11 8 6 5 4 6 6 5 3 7 7 4 6 9 6 7 9 8 10
3 4 6 5 1 3 4 6 4 4 6 6 5 6 7 9 8 5 8 6 7 5 5 9 4 6 6 8 3 2 4 3 6 5 6 5 3 5 7 8 10 9 7 5 7
5 1 2 4 6 6 2 3 6 8 4 6 7 7 3 7 7 7 4 7 5 9 6 6 3 1 4 6 3 2 3 4 6 5 6 8 9 8 7 9 7 2 2 5 7
4 4 5 3 4 6 7 7 8 6 7 6 7 2 5 4 3 3 3 2 2 7 5 4 0 2 5 7 7 7 6 7 6 5 9 8 3 5 5 2 4 3 2 4 5
3 2 3 5 7 4 4 3 5 4 3 3 4 4 3 4 5 8 7 5 5 1 2 3 3 4 5 6 4 7 7 2 3 4 14 10 9 8 5 7 6 5 4 1 4
Wind_Direction
332 330 330 331 331 332 333 337 336 335 332 330 331 328 325 326 315 172 230 204 161 153 129 155 172 126 127 75 60 179 61 52 47 143 163 145 136 184 97 133 130 131 124 150 156
328 328 326 325 326 327 329 331 332 332 329 327 326 325 325 330 294 246 256 133 139 153 149 165 196 107 113 110 136 63 63 250 308 34 144 145 160 137 126 163 64 101 101 136 151
326 325 323 322 322 323 326 326 329 328 326 323 323 323 321 320 280 236 201 143 154 168 154 155 136 33 35 22 113 137 144 322 342 231 139 140 134 116 141 209 193 151 142 143 156
324 322 320 319 318 319 322 322 324 323 320 318 319 321 318 215 170 164 169 143 159 183 176 144 193 55 72 17 351 18 238 234 301 55 128 155 151 137 198 229 148 145 144 151 168
324 320 317 315 315 314 315 316 316 316 313 312 317 321 317 276 252 145 151 133 147 212 168 168 161 122 39 207 121 315 333 356 335 295 169 158 165 147 218 128 137 141 157 167 173
324 319 317 314 314 311 312 312 311 307 305 307 310 317 267 235 117 147 130 141 169 168 185 183 200 195 285 181 147 51 0 355 326 301 234 164 151 131 140 141 149 155 167 173 183
326 319 316 314 314 312 309 307 303 298 299 297 290 270 30 231 119 145 137 169 169 183 177 217 204 12 329 59 58 48 24 20 354 353 94 106 87 147 150 157 162 173 176 175 188
321 320 315 313 313 310 306 302 296 293 289 268 220 264 237 305 116 129 168 160 178 227 247 35 69 267 258 129 91 79 53 351 320 320 330 66 230 151 158 161 177 186 187 183 195
321 322 317 314 312 310 306 296 293 283 232 168 123 208 269 94 162 197 166 195 142 216 276 261 144 215 121 122 76 200 150 120 287 209 259 129 140 180 165 175 182 188 196 202 202
324 323 318 314 313 313 307 292 211 107 161 199 252 29 260 226 202 165 191 242 163 147 244 172 179 153 13 95 229 183 118 139 243 231 209 161 151 151 174 189 190 193 205 203 206
325 325 320 314 314 326 343 105 53 56 215 193 190 243 318 285 119 196 161 133 316 148 219 204 128 204 222 200 215 189 144 168 227 232 266 268 161 170 160 170 178 199 199 211 217
334 329 323 316 311 323 306 179 198 189 303 223 229 269 254 274 189 236 110 151 179 189 232 12 250 235 229 210 217 212 155 194 178 161 123 50 267 235 174 167 166 185 215 203 202
335 330 323 311 302 283 217 230 343 17 118 293 186 189 209 145 206 223 144 174 215 162 229 179 246 344 184 188 216 204 191 184 158 146 127 123 258 4 330 197 188 188 198 229 191
335 329 315 295 300 205 263 233 266 179 63 278 231 269 156 161 229 190 172 140 250 215 205 236 277 229 295 177 163 284 186 162 146 135 190 68 184 27 301 304 73 37 3 86 233
324 312 308 220 298 175 270 312 122 59 67 157 195 37 100 135 162 246 171 64 185 222 109 248 266 342 324 239 183 242 142 141 133 76 65 336 72 306 356 299 263 260 272 294 286
325 310 264 181 205 239 296 297 57 43 7 63 137 164 112 15 142 78 123 66 150 163 317 254 260 241 226 276 167 113 76 45 52 83 36 284 103 295 242 247 286 268 239 238 241
320 262 197 278 227 319 308 43 37 129 358 188 152 105 150 210 305 160 176 172 171 84 330 321 279 278 168 86 59 92 102 37 16 50 217 235 69 234 247 246 247 259 235 235 187
331 180 220 242 345 343 46 50 301 200 228 53 102 83 136 139 261 25 84 165 263 74 57 77 330 250 95 180 184 269 133 152 212 146 241 24 126 250 229 250 233 230 262 251 230
347 107 244 258 203 35 67 63 233 223 278 105 50 71 339 281 122 143 158 206 219 165 179 149 279 302 242 232 120 182 73 164 105 4 70 307 285 292 233 239 210 244 196 242 80
347 43 283 155 167 74 76 254 258 223 29 63 105 188 202 255 135 134 176 224 214 193 124 232 310 279 316 22 40 103 157 74 16 130 90 321 289 249 298 311 234 188 194 177 7
44 52 297 208 86 49 111 243 282 296 182 81 148 157 217 233 166 156 185 293 216 98 144 137 151 291 26 21 221 24 29 57 110 101 142 159 267 228 254 271 165 144 157 175 205
38 51 345 358 35 48 210 214 329 334 8 62 94 136 333 30 74 132 152 233 298 144 158 223 127 261 245 301 329 210 137 132 121 199 86 132 260 279 250 292 305 313 320 223 268
63 285 354 60 43 342 319 339 55 26 18 37 8 39 27 27 71 42 11 2 20 87 150 208 30 18 350 2 6 14 10 104 110 93 192 127 250 355 323 304 300 315 310 324 333
64 35 339 42 131 336 305 332 28 5 78 61 15 55 42 27 3 36 4 346 349 47 52 75 87 137 169 230 202 323 313 150 118 111 168 203 185 287 287 297 302 288 299 345 349
21 33 192 336 343 333 332 360 13 8 29 43 21 41 61 33 3 19 343 336 356 355 33 87 75 179 238 252 210 326 301 271 120 138 142 194 158 222 221 237 265 290 10 353 20
65 31 354 298 309 354 3 349 16 346 21 358 103 40 59 85 145 299 23 323 286 343 37 8 159 324 335 0 24 58 30 51 51 110 73 107 86 167 226 57 109 147 16 349 22
332 349 102 297 344 52 317 331 10 341 322 33 329 121 133 179 206 217 204 227 224 314 2 66 101 54 294 350 6 18 329 343 81 68 148 155 207 156 153 161 167 174 201 258 348